Location: Unspecified
(0.0000°N, 0.0000°E)
Time: 08:59:54
(UTC+00:00)

ORBCOMM FM 111 - Visible Passes

Search period start: 25 January 2026 00:00
Search period end: 04 February 2026 00:00
Orbit: 584 x 624 km, 47.0° (Epoch: 25 January)

Date Brightness Start Highest point End Pass type
(mag) Time Alt. Az. Time Alt. Az. Time Alt. Az.
25 Jan ? 05:32:20 10° NNW 05:36:38 66° NE 05:40:57 10° SE visible
26 Jan ? 04:06:52 12° NE 04:07:15 12° NE 04:08:59 10° ENE visible
26 Jan ? 05:44:16 10° NW 05:48:27 47° SW 05:52:38 10° SSE visible
27 Jan ? 04:18:52 28° NE 04:19:07 29° NE 04:22:53 10° ESE visible
28 Jan ? 04:30:52 74° NE 04:30:55 74° NE 04:35:16 10° SE visible
29 Jan ? 04:42:48 41° SW 04:42:48 41° SW 04:46:50 10° SSE visible
30 Jan ? 04:54:40 17° SW 04:54:40 17° SW 04:57:26 10° S visible
